Tracking 18852 objects as of 24-Nov-2017
HD Live streaming from Space Station
objects crossing your sky now

COSMOS 2162

Track COSMOS 2162 now!
10-day predictions
COSMOS 2162 is classified as:


NORAD ID: 21733
Int'l Code: 1991-068F
Perigee: 1,414.5 km
Apogee: 1,426.1 km
Inclination: 82.6 °
Period: 114.1 minutes
Semi major axis: 7791 km
RCS: 1.159 m2 (large)
Launch date: September 28, 1991
Source: Commonwealth of Independent States (former USSR) (CIS)
Launch site: PLESETSK MISSILE AND SPACE COMPLEX (PKMTR)
aabbcc
Your satellite tracking list
Your tracking list is empty




NASA's NSSDC Master Catalog

Two Line Element Set (TLE):
1 21733U 91068F   17327.59947821 +.00000001 +00000-0 -51632-4 0  9998
2 21733 082.5874 172.7879 0007482 106.9861 306.0846 12.62375734205313
Source of the keplerian elements: AFSPC